Airfield :
LOGIN :

Register | Disclaimer

   EN    FR    IT 

 










Legend :    VFR   Marginal VFR   IFR   Intensive IFR   Very Intensive IFR
Visi :
Ceiling :
>= 8 km
>= 3000ft
5 to 8 km
1000 to 3000 ft
1500m to 5 km
500 to 1000 ft
800 to 1500m
200 to 500 ft
< 800m
< 200 ft
Symbols :   Thunderstorms  Fog  Heavy snow  Heavy precipitations  Wind > 20 kt
SIGMETs :     Misc.  Thunderstorms  Icing  Turbulence  Mountain Waves  Volcanic Ashes







- Airport Elevation : 545 ft
- IATA code : PZY


LZPP - Piešťany

CURRENT METAR :
  • 172300Z AUTO 30006KT 9999 OVC100/// 19/14 Q1009

EXPIRED METARs :
  • 172230Z AUTO 32009KT 9999 OVC091/// 20/14 Q1009
  • 172200Z AUTO 31010KT 9999 OVC079/// 20/14 Q1009
  • 172130Z AUTO 31013KT 9999 OVC071/// 21/14 Q1009
  • 172100Z AUTO 31011KT 9999 OVC070/// 21/13 Q1009
  • 172030Z AUTO 30007KT 9999 SCT090/// BKN110/// OVC130/// 20/14 Q1009

TAF TAF LZPP
Valid from the 17 at 18:00 until the 18 at 03:00 UTC


171700Z 1718/1803 33012KT CAVOK
No reported NOTAMs for that airfield.



MET'MAP, your aeronautical weather chart ! - Copyright ORBIFLY December 2007 - Disclaimer

ORBIFLY MET'MAP TEAM :

Programming & Development : Alexandra Zaïnal
Concept & Development : Baudouin d'Aumeries
Co-Development & Prog : Marc-Olivier Méhu
Technical & hardware support : Manuel Goepfert

Contact : metmap@orbifly.com




SOURCES & CREDITS :

   NOAA